Weather in Sverdlovskiy

Russia / Orenburg Oblast     52°39′37″N   53°40′33″E
temp.,
°C
wind,
m/s
gust,
m/s
humid.,
%
clouds,
%
prec.,
mm/h
press.,
hPa
HPBL,
m
23 june, wed
wed2323:00+23nw22720 0.0 102011
02:00+22wnw22730 0.0 101912
05:00+20nw12790 0.0 101911
08:00+24nw23680 0.0 1019203
11:00+29nw56530 0.0 1018953
14:00+30nnw564650 0.0 10182286
17:00+31nw674328 0.1 10172387
20:00+28nnw37584 0.0 1016254
24 june, thu
thu2423:00+21nne3670100 0.3 1018135
02:00+19nnw227366 0.0 101813
05:00+18nnw11815 0.0 101811
08:00+22nne237474 0.0 1018238
11:00+26nnw225824 0.0 1018909
14:00+29nnw335216 0.0 10181652
17:00+29n334814 0.0 10171872
20:00+28ne346087 0.0 1016159
25 june, fri
fri2523:00+22ese34755 0.6 101668
02:00+20nw1191100 4.7 101615
05:00+19n11895 4.7 101611
08:00+22wnw127753 0.0 1016246
11:00+26nw22605 0.0 1015764
14:00+29nw33500 0.0 10141619
17:00+29nnw345299 0.0 1013949
20:00+28nnw246117 0.0 1013142
26 june, sat
sat2623:00+23wnw22792 0.4 101213
02:00+21nw22842 0.0 101313
05:00+20nw11875 0.0 101211
08:00+24nw23745 0.0 1012222
11:00+28nnw34594 0.0 1012921
14:00+31n454788 0.0 10111735
17:00+32n55448 0.0 10112345
20:00+30wsw11591 0.0 101019
27 june, sun
sun2723:00+20nw3480100 2.1 101263
02:00+20nnw1181100 0.0 101214
05:00+19nw119156 0.0 101211
08:00+23nnw23785 0.0 1013216
11:00+28nw23595 0.0 1012718
14:00+31nnw454888 0.0 10121824
17:00+30nw565372 0.0 10111187
20:00+27n5770100 0.2 1012336